TimePDT,TemperatureF,Dew PointF,Humidity,Sea Level PressureIn,VisibilityMPH,Wind Direction,Wind SpeedMPH,Gust SpeedMPH,PrecipitationIn,Events,Conditions,WindDirDegrees,DateUTC
12:00 AM,57.2,51.8,82,29.51,15.0,SSW,17.3,24.2,N/A,,Partly Cloudy,200,2012-10-16 07:00:00
1:00 AM,53.6,50.0,88,29.53,15.0,SW,8.1,-,N/A,,Partly Cloudy,220,2012-10-16 08:00:00
2:00 AM,53.6,48.2,82,29.55,15.0,South,11.5,-,N/A,,Partly Cloudy,190,2012-10-16 09:00:00
3:00 AM,53.6,48.2,82,29.58,15.0,South,13.8,-,N/A,,Partly Cloudy,180,2012-10-16 10:00:00
4:00 AM,53.6,48.2,82,29.61,15.0,SSW,20.7,-,N/A,,Mostly Cloudy,200,2012-10-16 11:00:00
5:00 AM,53,46,71,29.66,15,South,17.3,,,,Overcast,190,2012-10-16 12:00:00
5:00 AM,53.6,46.4,77,29.66,15.0,SSW,17.3,25.3,N/A,,Overcast,200,2012-10-16 12:00:00
6:00 AM,51.8,44.6,76,29.70,15.0,SSW,18.4,24.2,N/A,,Mostly Cloudy,210,2012-10-16 13:00:00
7:00 AM,51.8,41.0,67,29.78,25.0,SSW,18.4,25.3,N/A,,Mostly Cloudy,200,2012-10-16 14:00:00
8:00 AM,48.2,41.0,76,29.83,25.0,SE,15.0,-,N/A,,Partly Cloudy,140,2012-10-16 15:00:00
9:00 AM,50.0,41.0,71,29.88,25.0,South,13.8,-,N/A,,Partly Cloudy,180,2012-10-16 16:00:00
10:00 AM,53.6,42.8,67,29.94,25.0,South,15.0,-,N/A,,Partly Cloudy,190,2012-10-16 17:00:00
11:00 AM,55,42,52,29.98,25,South,16.1,,,,Scattered Clouds,190,2012-10-16 18:00:00
11:00 AM,55.4,42.8,63,29.98,25.0,SSW,17.3,-,N/A,,Mostly Cloudy,200,2012-10-16 18:00:00
12:00 PM,55.4,42.8,63,30.00,25.0,South,16.1,-,N/A,,Mostly Cloudy,190,2012-10-16 19:00:00
1:00 PM,57.2,44.6,63,30.02,25.0,South,18.4,-,N/A,,Mostly Cloudy,190,2012-10-16 20:00:00
2:00 PM,55.4,44.6,67,30.03,25.0,SSW,16.1,24.2,N/A,,Mostly Cloudy,200,2012-10-16 21:00:00
3:00 PM,57.2,46.4,67,30.04,25.0,South,16.1,23.0,N/A,,Mostly Cloudy,190,2012-10-16 22:00:00
4:00 PM,55.4,42.8,63,30.05,25.0,South,15.0,-,N/A,,Mostly Cloudy,190,2012-10-16 23:00:00
4:35 PM,55.4,44.6,67,30.06,15.0,South,12.7,-,N/A,Rain,Light Rain,180,2012-10-16 23:35:00
5:00 PM,55,44,58,30.07,15,SSW,11.5,,,Rain,Light Drizzle,200,2012-10-17 00:00:00
5:00 PM,55.4,44.6,67,30.07,15.0,SSW,12.7,-,N/A,,Mostly Cloudy,200,2012-10-17 00:00:00
5:08 PM,55.4,44.6,67,30.08,20.0,South,15.0,-,N/A,Rain,Light Rain Showers,190,2012-10-17 00:08:00
6:00 PM,51.8,46.4,82,30.11,10.0,SW,8.1,-,N/A,,Mostly Cloudy,220,2012-10-17 01:00:00
6:13 PM,50.0,46.4,87,30.12,25.0,SW,4.6,-,N/A,,Mostly Cloudy,230,2012-10-17 01:13:00
7:00 PM,50.0,46.4,87,30.13,10.0,SW,4.6,-,N/A,,Mostly Cloudy,220,2012-10-17 02:00:00
8:00 PM,48.2,44.6,87,30.16,10.0,SSE,9.2,-,N/A,,Mostly Cloudy,160,2012-10-17 03:00:00
9:00 PM,50.0,44.6,82,30.18,10.0,South,11.5,-,N/A,,Mostly Cloudy,180,2012-10-17 04:00:00
10:00 PM,48.2,42.8,82,30.21,10.0,South,10.4,-,N/A,,Mostly Cloudy,190,2012-10-17 05:00:00
11:00 PM,48,42,75,30.25,10,South,9.2,,,,Partly Cloudy,180,2012-10-17 06:00:00
11:00 PM,48.2,42.8,82,30.24,10.0,South,10.4,-,N/A,,Mostly Cloudy,180,2012-10-17 06:00:00